Grand Prairie, TX

9:20 PM CDT on September 25, 2017 (GMT -0500)
Grand Prairie Municipal

Weather History for KGPM - February, 2014

Change the Weather History Date:

Wednesday, February 19, 2014

  Actual Average (KRBD) Record (KRBD)
Temperature  
Mean Temperature 64 °F -  
Max Temperature 69 °F 59 °F 77 °F (2016)
Min Temperature 60 °F 40 °F 24 °F (2006)
Growing Degree Days 14 (Base 50)    
Moisture  
Dew Point 59 °F    
Average Humidity 83    
Maximum Humidity 100    
Minimum Humidity 68    
Precipitation  
Precipitation 0.00 in - - ()
Sea Level Pressure  
Sea Level Pressure 29.84 in    
Wind  
Wind Speed 9 mph (South)    
Max Wind Speed 21 mph    
Max Gust Speed 30 mph    
Visibility 7 miles    
Events Fog    
Averages and records for this station are not official NWS values.
T = Trace of Precipitation, MM = Missing Value Source: NWS Daily Summary

Daily Weather History Graph

Daily Weather History Graph

Search for Another Location

Airport or City:

Trip Planner

Search our weather history database for the weather conditions in past years. The results will help you decide how hot, cold, wet, or windy it might be!

Date:

Astronomy

Feb. 19, 2014 Rise Set
Actual Time 7:07 AM CST 6:17 PM CST
Civil Twilight 6:42 AM CST 6:42 PM CST
Nautical Twilight 6:13 AM CST 7:11 PM CST
Astronomical Twilight 5:44 AM CST 7:39 PM CST
Moon 10:53 PM CST (2/19) 9:30 AM CST (2/19)
Length of Visible Light 12h 00m
Length of Day
11h 10m
Waning Gibbous, 79% of the Moon is Illuminated
Feb 19
Waning Gibbous
Feb 22
Last Quarter
Mar 1
New
Mar 8
First Quarter
Mar 16
Full

Hourly Weather History & Observations

Time (CST) Temp. Dew Point Humidity Pressure Visibility Wind Dir Wind Speed Gust Speed Precip Events Conditions
12:15 AM 64.4 °F 57.2 °F 77% 29.91 in 10.0 mi SSW 6.9 mph - N/A   Clear
12:35 AM 64.4 °F 57.2 °F 77% 29.91 in 7.0 mi South 8.1 mph - N/A   Clear
12:55 AM 62.6 °F 55.4 °F 77% 29.91 in 7.0 mi South 6.9 mph - N/A   Clear
1:15 AM 62.6 °F 57.2 °F 82% 29.92 in 7.0 mi South 8.1 mph - N/A   Clear
1:35 AM 62.6 °F 57.2 °F 82% 29.93 in 7.0 mi SSW 8.1 mph - N/A   Clear
1:55 AM 62.6 °F 57.2 °F 82% 29.93 in 7.0 mi SSW 5.8 mph - N/A   Clear
2:15 AM 62.6 °F 57.2 °F 82% 29.93 in 7.0 mi South 4.6 mph - N/A   Clear
2:35 AM 62.6 °F 57.2 °F 82% 29.92 in 5.0 mi South 4.6 mph - N/A   Clear
2:55 AM 60.8 °F 59.0 °F 94% 29.92 in 5.0 mi South 5.8 mph - N/A   Clear
3:15 AM 60.8 °F 59.0 °F 94% 29.91 in 4.0 mi South 5.8 mph - N/A   Clear
3:35 AM 60.8 °F 59.0 °F 94% 29.91 in 4.0 mi South 8.1 mph - N/A   Clear
3:55 AM 60.8 °F 59.0 °F 94% 29.92 in 4.0 mi South 6.9 mph - N/A   Clear
4:15 AM 60.8 °F 59.0 °F 94% 29.91 in 4.0 mi South 5.8 mph - N/A   Scattered Clouds
4:35 AM 60.8 °F 60.8 °F 100% 29.91 in 4.0 mi South 8.1 mph - N/A   Overcast
4:55 AM 62.6 °F 60.8 °F 94% 29.91 in 4.0 mi South 8.1 mph - N/A   Overcast
5:15 AM 62.6 °F 60.8 °F 94% 29.91 in 3.0 mi South 10.4 mph 16.1 mph N/A   Overcast
5:35 AM 62.6 °F 60.8 °F 94% 29.91 in 3.0 mi South 9.2 mph - N/A   Overcast
5:55 AM 62.6 °F 60.8 °F 94% 29.91 in 2.5 mi South 9.2 mph - N/A   Overcast
7:50 AM 62.6 °F 60.8 °F 94% 29.93 in 5.5 mi South 10.4 mph - N/A   Overcast
8:50 AM 62.6 °F 60.8 °F 94% 29.94 in 2.0 mi South 10.4 mph - N/A Fog Fog
9:50 AM 62.6 °F 60.8 °F 94% 29.93 in 3.0 mi South 10.4 mph - N/A Fog Fog
10:50 AM 64.4 °F 60.8 °F 88% 29.92 in 7.0 mi South 10.4 mph - N/A   Overcast
11:50 AM 64.4 °F 60.8 °F 88% 29.91 in 7.0 mi South 9.2 mph 18.4 mph N/A   Overcast
12:50 PM 66.2 °F 59.0 °F 78% 29.86 in 7.0 mi SSE 12.7 mph 16.1 mph N/A   Overcast
1:50 PM 64.4 °F 59.0 °F 83% 29.83 in 7.0 mi SSE 13.8 mph 19.6 mph N/A   Overcast
2:50 PM 66.2 °F 59.0 °F 78% 29.80 in 7.0 mi South 10.4 mph 17.3 mph N/A   Overcast
3:50 PM 68.0 °F 59.0 °F 73% 29.79 in 7.0 mi SSE 11.5 mph 19.6 mph N/A   Overcast
4:50 PM 69.8 °F 59.0 °F 68% 29.76 in 10.0 mi SSE 11.5 mph 17.3 mph N/A   Mostly Cloudy
5:50 PM 69.8 °F 59.0 °F 68% 29.73 in 10.0 mi South 6.9 mph - N/A   Mostly Cloudy
8:15 PM 66.2 °F 59.0 °F 78% 29.72 in 10.0 mi South 3.5 mph - N/A   Clear
8:35 PM 66.2 °F 59.0 °F 78% 29.71 in 10.0 mi SSE 3.5 mph - N/A   Clear
8:55 PM 66.2 °F 59.0 °F 78% 29.72 in 10.0 mi South 5.8 mph - N/A   Clear
9:15 PM 68.0 °F 57.2 °F 68% 29.72 in 10.0 mi South 8.1 mph - N/A   Clear
9:35 PM 68.0 °F 57.2 °F 68% 29.71 in 10.0 mi South 12.7 mph 18.4 mph N/A   Clear
9:55 PM 68.0 °F 59.0 °F 73% 29.71 in 10.0 mi South 12.7 mph 18.4 mph N/A   Clear
10:35 PM 68.0 °F 59.0 °F 73% 29.70 in 10.0 mi South 16.1 mph 24.2 mph N/A   Clear
10:55 PM 66.2 °F 59.0 °F 78% 29.69 in 10.0 mi South 16.1 mph 28.8 mph N/A   Clear
11:15 PM 66.2 °F 59.0 °F 78% 29.68 in 10.0 mi South 18.4 mph 29.9 mph N/A   Clear
11:35 PM 66.2 °F 59.0 °F 78% 29.67 in 10.0 mi South 17.3 mph 27.6 mph N/A   Clear
11:55 PM 64.4 °F 59.0 °F 83% 29.67 in 10.0 mi South 20.7 mph 26.5 mph N/A   Scattered Clouds